Weather History for Pampa / Mesa Vista, TX

Change the Weather History Date:

Monday, October 8, 2012

  Actual Average (KBGD) Record (KBGD)
Temperature  
Mean Temperature 50 °F 63 °F  
Max Temperature 69 °F 76 °F 95 °F (1979)
Min Temperature 32 °F 51 °F 29 °F (1970)
Degree Days  
Heating Degree Days 14 4  
Month to date heating degree days 28  
Since 1 July heating degree days 56  
Cooling Degree Days 0 3  
Month to date cooling degree days 26  
Year to date cooling degree days 1811  
Moisture  
Dew Point 34 °F    
Average Humidity 62    
Maximum Humidity 100    
Minimum Humidity 28    
Precipitation  
Precipitation 0.00 in 0.05 in 1.34 in (2006)
Month to date precipitation 0.57  
Year to date precipitation 18.96  
Snow  
Snow 0.00 in - - ()
Month to date snowfall  
Since 1 July snowfall  
Since 1 September snowfall  
Snow Depth -    
Sea Level Pressure  
Sea Level Pressure 30.04 in    
Wind  
Wind Speed 10 mph (SSW)    
Max Wind Speed 23 mph    
Max Gust Speed 31 mph    
Visibility 10 miles    
Events      
T = Trace of Precipitation, MM = Missing Value Source: NWS Daily Summary

Daily Weather History Graph

Daily Weather History Graph

Search for Another Location

Airport:

Trip Planner

Search our weather history database for the weather conditions in past years. The results will help you decide how hot, cold, wet, or windy it might be!

Date:

Astronomy

Oct. 08, 2012 Rise Set
Actual Time 7:45 AM CDT 7:17 PM CDT
Civil Twilight 7:19 AM CDT 7:42 PM CDT
Nautical Twilight 6:50 AM CDT 8:12 PM CDT
Astronomical Twilight 6:20 AM CDT 8:41 PM CDT
Moon 12:39 AM CDT (10/8) 2:56 PM CDT (10/8)
Length of Visible Light 12h 23m
Length of Day
11h 31m
Last Quarter, 46% of the Moon is Illuminated
Oct 8
Last Quarter
Oct 15
New
Oct 21
First Quarter
Oct 29
Full
Nov 6
Last Quarter

Hourly Weather History & Observations

Time (CDT) Temp. Windchill Dew Point Humidity Pressure Visibility Wind Dir Wind Speed Gust Speed Precip Events Conditions
12:15 AM 35.6 °F 29.9 °F 32.0 °F 87% 30.18 in 10.0 mi WSW 6.9 mph - N/A   Clear
12:35 AM 33.8 °F 28.6 °F 32.0 °F 93% 30.18 in 10.0 mi WSW 5.8 mph - N/A   Clear
12:55 AM 35.6 °F 29.2 °F 32.0 °F 87% 30.18 in 10.0 mi SW 8.1 mph - N/A   Clear
1:15 AM 35.6 °F 29.2 °F 32.0 °F 87% 30.18 in 10.0 mi SW 8.1 mph - N/A   Clear
1:35 AM 35.6 °F 30.7 °F 32.0 °F 87% 30.18 in 10.0 mi WSW 5.8 mph - N/A   Clear
1:55 AM 33.8 °F 28.6 °F 32.0 °F 93% 30.18 in 10.0 mi WSW 5.8 mph - N/A   Clear
2:15 AM 33.8 °F 29.6 °F 32.0 °F 93% 30.18 in 10.0 mi SW 4.6 mph - N/A   Clear
2:35 AM 32.0 °F 25.6 °F 30.2 °F 93% 30.18 in 10.0 mi SW 6.9 mph - N/A   Clear
2:55 AM 33.8 °F 27.7 °F 32.0 °F 93% 30.17 in 10.0 mi SW 6.9 mph - N/A   Clear
3:15 AM 32.0 °F 27.5 °F 32.0 °F 100% 30.17 in 10.0 mi SW 4.6 mph - N/A   Clear
3:35 AM 32.0 °F 28.7 °F 32.0 °F 100% 30.16 in 10.0 mi SW 3.5 mph - N/A   Clear
3:55 AM 32.0 °F 26.4 °F 32.0 °F 100% 30.15 in 10.0 mi SSW 5.8 mph - N/A   Clear
4:15 AM 33.8 °F 27.0 °F 32.0 °F 93% 30.14 in 10.0 mi SW 8.1 mph - N/A   Clear
4:35 AM 33.8 °F 26.4 °F 32.0 °F 93% 30.13 in 10.0 mi SW 9.2 mph - N/A   Clear
4:55 AM 33.8 °F 26.4 °F 32.0 °F 93% 30.12 in 10.0 mi SW 9.2 mph - N/A   Clear
5:15 AM 33.8 °F 26.4 °F 32.0 °F 93% 30.12 in 10.0 mi SW 9.2 mph - N/A   Clear
5:35 AM 33.8 °F 28.6 °F 32.0 °F 93% 30.12 in 10.0 mi SW 5.8 mph - N/A   Clear
6:15 AM 33.8 °F 29.6 °F 32.0 °F 93% 30.12 in 10.0 mi SW 4.6 mph - N/A   Clear
6:35 AM 32.0 °F 28.7 °F 32.0 °F 100% 30.12 in 10.0 mi SW 3.5 mph - N/A   Clear
6:55 AM 33.8 °F 28.6 °F 32.0 °F 93% 30.12 in 10.0 mi SW 5.8 mph - N/A   Clear
7:15 AM 32.0 °F 27.5 °F 32.0 °F 100% 30.11 in 10.0 mi SW 4.6 mph - N/A   Clear
7:35 AM 32.0 °F 27.5 °F 32.0 °F 100% 30.12 in 10.0 mi SW 4.6 mph - N/A   Clear
7:55 AM 32.0 °F 27.5 °F 32.0 °F 100% 30.12 in 10.0 mi SW 4.6 mph - N/A   Clear
8:15 AM 33.8 °F 30.8 °F 32.0 °F 93% 30.12 in 10.0 mi SW 3.5 mph - N/A   Clear
8:35 AM 35.6 °F 30.7 °F 32.0 °F 87% 30.11 in 10.0 mi SW 5.8 mph - N/A   Clear
8:55 AM 37.4 °F 33.8 °F 33.8 °F 87% 30.12 in 10.0 mi SW 4.6 mph - N/A   Clear
9:15 AM 41.0 °F 35.8 °F 33.8 °F 76% 30.12 in 10.0 mi SW 8.1 mph - N/A   Clear
9:35 AM 42.8 °F 37.5 °F 33.8 °F 70% 30.12 in 10.0 mi SW 9.2 mph - N/A   Clear
9:55 AM 46.4 °F 40.4 °F 33.8 °F 62% 30.12 in 10.0 mi WSW 13.8 mph 19.6 mph N/A   Clear
10:15 AM 50.0 °F - 33.8 °F 54% 30.11 in 10.0 mi WSW 20.7 mph 25.3 mph N/A   Clear
10:35 AM 51.8 °F - 33.8 °F 50% 30.11 in 10.0 mi WSW 15.0 mph 19.6 mph N/A   Clear
10:55 AM 53.6 °F - 35.6 °F 51% 30.11 in 10.0 mi WSW 10.4 mph 17.3 mph N/A   Clear
11:15 AM 55.4 °F - 35.6 °F 47% 30.10 in 10.0 mi WSW 11.5 mph 17.3 mph N/A   Clear
11:35 AM 59.0 °F - 35.6 °F 42% 30.09 in 10.0 mi WSW 12.7 mph 17.3 mph N/A   Clear
11:55 AM 60.8 °F - 33.8 °F 36% 30.08 in 10.0 mi SW 11.5 mph 18.4 mph N/A   Clear
12:15 PM 60.8 °F - 33.8 °F 36% 30.07 in 10.0 mi SW 12.7 mph 21.9 mph N/A   Clear
12:35 PM 62.6 °F - 35.6 °F 37% 30.05 in 10.0 mi SSW 16.1 mph 23.0 mph N/A   Clear
12:55 PM 64.4 °F - 33.8 °F 32% 30.04 in 10.0 mi SSW 19.6 mph 24.2 mph N/A   Clear
1:15 PM 64.4 °F - 33.8 °F 32% 30.03 in 10.0 mi SSW 21.9 mph 27.6 mph N/A   Clear
1:35 PM 66.2 °F - 33.8 °F 30% 30.03 in 10.0 mi SSW 18.4 mph 28.8 mph N/A   Clear
1:55 PM 66.2 °F - 35.6 °F 32% 30.01 in 10.0 mi SSW 21.9 mph 28.8 mph N/A   Clear
2:15 PM 66.2 °F - 35.6 °F 32% 29.99 in 10.0 mi SSW 23.0 mph 29.9 mph N/A   Clear
2:35 PM 68.0 °F - 35.6 °F 30% 29.98 in 10.0 mi SSW 19.6 mph 31.1 mph N/A   Clear
3:15 PM 69.8 °F - 35.6 °F 28% 29.97 in 10.0 mi SW 20.7 mph 26.5 mph N/A   Clear
3:35 PM 68.0 °F - 35.6 °F 30% 29.96 in 10.0 mi SSW 17.3 mph 26.5 mph N/A   Clear
3:55 PM 68.0 °F - 35.6 °F 30% 29.95 in 10.0 mi SW 18.4 mph 28.8 mph N/A   Clear
4:15 PM 68.0 °F - 35.6 °F 30% 29.94 in 10.0 mi SW 20.7 mph 26.5 mph N/A   Clear
4:35 PM 69.8 °F - 35.6 °F 28% 29.94 in 10.0 mi SSW 18.4 mph 27.6 mph N/A   Clear
4:55 PM 69.8 °F - 35.6 °F 28% 29.93 in 10.0 mi SSW 18.4 mph 28.8 mph N/A   Clear
5:15 PM 69.8 °F - 35.6 °F 28% 29.93 in 10.0 mi SSW 17.3 mph 24.2 mph N/A   Clear
5:35 PM 68.0 °F - 35.6 °F 30% 29.92 in 10.0 mi South 17.3 mph - N/A   Clear
5:55 PM 68.0 °F - 35.6 °F 30% 29.92 in 10.0 mi South 12.7 mph 18.4 mph N/A   Clear
6:15 PM 66.2 °F - 35.6 °F 32% 29.91 in 10.0 mi SSE 11.5 mph - N/A   Clear
6:35 PM 64.4 °F - 35.6 °F 34% 29.91 in 10.0 mi SSE 11.5 mph - N/A   Clear
6:55 PM 64.4 °F - 35.6 °F 34% 29.91 in 10.0 mi SSE 13.8 mph - N/A   Clear
7:15 PM 60.8 °F - 37.4 °F 42% 29.91 in 10.0 mi SSE 13.8 mph - N/A   Clear
7:35 PM 59.0 °F - 37.4 °F 45% 29.91 in 10.0 mi SSE 12.7 mph - N/A   Clear
8:15 PM 59.0 °F - 37.4 °F 45% 29.90 in 10.0 mi SSE 16.1 mph 19.6 mph N/A   Clear
8:35 PM 57.2 °F - 37.4 °F 48% 29.90 in 10.0 mi SSE 16.1 mph - N/A   Clear
9:15 PM 55.4 °F - 37.4 °F 51% 29.91 in 10.0 mi SSE 17.3 mph 23.0 mph N/A   Clear
9:35 PM 55.4 °F - 37.4 °F 51% 29.91 in 10.0 mi South 17.3 mph 21.9 mph N/A   Clear
9:55 PM 55.4 °F - 37.4 °F 51% 29.91 in 10.0 mi South 17.3 mph 24.2 mph N/A   Clear
10:15 PM 55.4 °F - 37.4 °F 51% 29.91 in 10.0 mi SSE 18.4 mph 24.2 mph N/A   Clear
10:35 PM 55.4 °F - 37.4 °F 51% 29.91 in 10.0 mi South 17.3 mph 24.2 mph N/A   Clear
10:55 PM 55.4 °F - 37.4 °F 51% 29.91 in 10.0 mi SSE 18.4 mph 26.5 mph N/A   Clear
11:15 PM 53.6 °F - 37.4 °F 54% 29.92 in 10.0 mi South 11.5 mph 20.7 mph N/A   Clear
11:35 PM 53.6 °F - 37.4 °F 54% 29.92 in 10.0 mi South 12.7 mph 19.6 mph N/A   Clear
11:55 PM 53.6 °F - 37.4 °F 54% 29.92 in 10.0 mi SSW 6.9 mph - N/A   Clear